Simultaneous Nadir Overpasses (SNOs) Predictions

Prediction of SNOs between NOAA-19 and TERRA Satellite Orbit:

Table of predicted SNOs for the next 14.0 days since TLE Epoch: 11/28/2020
Index Date (NOAA-19) Time (NOAA-19) Lat,Lon (NOAA-19) SZA (NOAA-19 ) Date (TERRA) Time (TERRA) Lat,Lon (TERRA) SZA (TERRA ) Distance(km) Time Diff (sec)
1 11/30/2020 06:22:49 -79.86, -64.61 76.84 11/30/2020 06:22:48 -79.89, -64.71 76.83 3.29 1
2 12/02/2020 11:55:59 79.88, 32.02 103.49 12/02/2020 11:56:30 79.91, 32.00 103.52 3.01 31
3 12/02/2020 12:47:03 -79.86,-160.55 76.51 12/02/2020 12:45:58 -79.87,-160.62 76.53 1.81 65
4 12/04/2020 17:29:18 -79.90, 128.53 76.23 12/04/2020 17:30:14 -79.89, 128.42 76.23 2.47 56
5 12/04/2020 18:20:13 79.87, -63.86 103.78 12/04/2020 18:19:40 79.88, -63.95 103.77 2.28 33
6 12/06/2020 23:53:31 -79.88, 32.84 75.97 12/06/2020 23:53:23 -79.90, 32.74 75.97 3.37 8
7 12/09/2020 05:26:42 79.90, 129.40 104.24 12/09/2020 05:27:05 79.90, 129.33 104.25 1.51 23
8 12/09/2020 06:17:45 -79.88, -63.18 75.76 12/09/2020 06:16:33 -79.87, -63.26 75.80 1.80 72
9 12/11/2020 11:00:00 -79.92,-134.17 75.60 12/11/2020 11:00:48 -79.91,-134.01 75.57 3.19 48
